DW2762 Weather Reports


Display with metric or nautical units.
time (UTC)temp
F
wind
direction
speed
MPH
gust
MPH
rain 1hr
in
rain 24hr
in
rain mn
in
humidity
%
barometer
mb
20260508110109 63 309 3.0 5.0 0.00 0.00 0.00 58 1017.5
20260508104609 63 300 3.0 8.0 0.00 0.00 0.00 58 1017.5
20260508103110 61 51 1.0 4.0 0.00 0.00 0.00 60 1017.6
20260508101609 61 42 4.0 6.0 0.00 0.00 0.00 61 1017.7
20260508094609 61 338 2.0 4.0 0.00 0.00 0.00 62 1017.7
20260508093109 60 19 4.0 9.0 0.00 0.00 0.00 65 1017.7
20260508091609 61 296 3.0 10.0 0.00 0.00 0.00 63 1018.0
20260508090110 61 279 2.0 5.0 0.00 0.00 0.00 64 1017.7
20260508084614 58 314 2.0 6.0 0.00 0.00 0.00 67 1017.8
20260508083114 59 261 2.0 7.0 0.00 0.00 0.00 66 1017.7
20260508081614 60 313 2.0 5.0 0.00 0.00 0.00 66 1017.7
20260508080113 57 262 1.0 4.0 0.00 0.00 0.00 71 1017.7
20260508074613 58 331 3.0 7.0 0.00 0.00 0.00 71 1017.7
20260508073113 58 266 3.0 5.0 0.00 0.00 0.00 70 1017.7
20260508071613 59 294 2.0 5.0 0.00 0.00 0.00 69 1017.5
20260508070113 58 31 3.0 7.0 0.00 0.00 0.00 70 1017.5
20260508063113 56 285 6.0 10.0 0.00 0.00 0.00 74 1017.4
20260508061612 56 334 4.0 10.0 0.00 0.00 0.00 75 1017.2
20260508060112 56 334 2.0 8.0 0.00 0.00 0.00 76 1017.1
20260508053112 54 348 3.0 4.0 0.00 0.00 0.00 78 1017.1
20260508051612 53 46 4.0 5.0 0.00 0.00 0.00 80 1017.1
20260508050112 52 339 2.0 8.0 0.00 0.00 0.00 83 1016.9
20260508044612 49 290 1.0 3.0 0.00 0.00 0.00 87 1016.9
20260508041611 47 285 0.0 2.0 0.00 0.00 0.00 88 1016.7
20260508040111 47 286 0.0 0.0 0.00 0.00 0.00 86 1016.7
20260508034611 47 286 0.0 0.0 0.00 0.00 0.00 85 1016.5
20260508033111 48 286 0.0 2.0 0.00 0.00 0.00 85 1016.5
20260508031611 48 306 1.0 5.0 0.00 0.00 0.00 84 1016.2
20260508030111 49 319 2.0 7.0 0.00 0.00 0.00 84 1016.1
20260508024612 49 301 3.0 4.0 0.00 0.00 0.00 83 1016.2
20260508023111 50 319 2.0 4.0 0.00 0.00 0.00 82 1016.1
20260508020111 52 298 2.0 5.0 0.00 0.00 0.00 80 1015.9
20260508013110 53 315 3.0 8.0 0.00 0.00 0.00 78 1015.8
20260508011610 54 317 3.0 8.0 0.00 0.00 0.00 77 1015.8
20260508010110 54 331 2.0 5.0 0.00 0.00 0.00 77 1015.7
20260508004610 54 304 2.0 5.0 0.00 0.00 0.00 76 1015.7
20260508001610 56 304 3.0 6.0 0.00 0.00 0.00 75 1015.7
20260507234610 56 319 2.0 5.0 0.00 0.00 0.00 74 1015.8
20260507231610 57 328 2.0 8.0 0.00 0.00 0.00 72 1015.7
20260507230110 57 319 4.0 11.0 0.00 0.00 0.00 72 1015.8
20260507224610 57 314 4.0 10.0 0.00 0.00 0.00 72 1015.6
20260507223109 57 319 3.0 9.0 0.00 0.00 0.00 71 1015.7
20260507221609 58 325 5.0 10.0 0.00 0.00 0.00 70 1015.5
20260507220109 58 329 2.0 10.0 0.00 0.00 0.00 70 1015.4
20260507214609 58 322 4.0 8.0 0.00 0.00 0.00 68 1015.5
20260507213109 58 320 6.0 10.0 0.00 0.00 0.00 66 1015.3
20260507211610 59 309 5.0 12.0 0.00 0.00 0.00 65 1015.1
20260507210109 59 329 6.0 11.0 0.00 0.00 0.00 64 1015.0
20260507203110 58 324 1.0 5.0 0.00 0.00 0.00 67 1014.8
20260507201609 58 315 0.0 2.0 0.00 0.00 0.00 69 1014.5
20260507194610 59 238 0.0 0.0 0.00 0.00 0.00 69 1014.3
20260507193108 59 238 0.0 0.0 0.00 0.00 0.00 68 1014.2
20260507191608 60 235 0.0 1.0 0.00 0.00 0.00 68 1014.2
20260507190108 60 236 1.0 4.0 0.00 0.00 0.00 65 1014.0
20260507184608 60 238 0.0 0.0 0.00 0.00 0.00 65 1013.6
20260507183108 60 238 1.0 4.0 0.00 0.00 0.00 63 1013.5
20260507181609 62 206 2.0 4.0 0.00 0.00 0.00 61 1013.3
20260507180108 62 205 2.0 3.0 0.00 0.00 0.00 59 1013.0
20260507174608 64 182 2.0 3.0 0.00 0.00 0.00 56 1013.0
20260507173113 65 159 3.0 7.0 0.00 0.00 0.00 54 1012.9
20260507171612 66 286 2.0 3.0 0.00 0.00 0.00 53 1012.6
20260507164612 67 290 3.0 6.0 0.00 0.00 0.00 51 1012.2
20260507163113 68 269 3.0 7.0 0.00 0.00 0.00 49 1012.1
20260507161612 69 288 4.0 9.0 0.00 0.00 0.00 47 1012.1
20260507160112 69 281 1.0 4.0 0.00 0.00 0.00 47 1011.9
20260507154612 68 333 2.0 5.0 0.00 0.00 0.00 50 1011.9
20260507151612 69 284 7.0 11.0 0.00 0.00 0.00 49 1012.0
20260507143111 69 265 4.0 7.0 0.00 0.00 0.00 48 1011.7
20260507141611 69 300 2.0 9.0 0.00 0.00 0.00 46 1011.8
20260507140111 70 286 4.0 7.0 0.00 0.00 0.00 45 1011.9
20260507134611 70 253 4.0 8.0 0.00 0.00 0.00 44 1012.0
20260507131610 69 208 6.0 11.0 0.00 0.00 0.00 46 1012.3
20260507124610 70 215 4.0 14.0 0.00 0.00 0.00 45 1012.3
20260507123112 69 198 6.0 12.0 0.00 0.00 0.00 47 1012.3
20260507121610 70 272 8.0 13.0 0.00 0.00 0.00 48 1012.3
20260507120111 68 180 5.0 9.0 0.00 0.00 0.00 53 1012.4
20260507114610 67 192 6.0 9.0 0.00 0.00 0.00 54 1012.5
20260507113109 67 184 5.0 12.0 0.00 0.00 0.00 53 1012.5